Location: Dumpton Point
(51.3500°N, 1.4433°E)
Time: 05:31:44
(UTC+00:00)

Altair - Pass Details

Date: 30 September 2022
Orbit: 1501 x 1682 km, 47.2° (Epoch: 26 November)

Event Time Altitude Azimuth Distance (km) Brightness Sun altitude
Rises 03:45:15 0° 184° (S) 4,763 9.8 -20.3°
Reaches altitude 10° 03:49:34 10° 167° (SSE) 3,816 9.5 -19.7°
Maximum altitude 03:55:35 18° 128° (SE) 3,235 9.6 -18.8°
Drops below altitude 10° 04:01:42 10° 89° (E) 3,908 10.7 -17.9°
Sets 04:06:09 0° 73° (ENE) 4,920 12.0 -17.3°
